Regional Weather Roundup
Issued by NWS

Home | Current Version | Previous Version | Text Only | Print | Product List | Glossary Off
Versions: 1 2 3 4 5 6 7 8 9 10 11 12 13 14 15 16 17 18 19 20 21 22 23 24 25 26 27 28 29 30 31 32 33 34 35 36 37 38 39 40 41 42 43 44 45 46 47 48 49 50

000
ASUS43 KMKX 152359
RWRWI

WISCONSIN REGIONAL WEATHER ROUNDUP
NATIONAL WEATHER SERVICE MILWAUKEE/SULLIVAN WI
600 PM CST FRI DEC 15 2017

NOTE: "FAIR" INDICATES FEW OR NO CLOUDS BELOW 12,000 FEET WITH NO
SIGNIFICANT WEATHER AND/OR OBSTRUCTIONS TO VISIBILITY.

WIZ001-002-006>008-014>016-023>028-160100-
NORTHWEST WISCONSIN

CITY           SKY/WX    TMP DP  RH WIND       PRES   REMARKS
SUPERIOR ARPT  CLOUDY    16   7  69 CALM      29.79S
ASHLAND        CLOUDY     7   3  84 CALM      29.81R
6HR MIN TEMP:   6; 6HR MAX TEMP:  16; 6HR PCP: TRACE;

HAYWARD        CLOUDY    16   9  74 CALM      29.76F
6HR MIN TEMP:  11; 6HR MAX TEMP:  18; 6HR PCP: TRACE;

SIREN          CLOUDY    19  11  69 S3        29.78S
CUMBERLAND     CLOUDY    18  10  73 CALM      29.77S
RICE LAKE      CLOUDY    17  11  77 CALM      29.79F
CHETEK         CLOUDY    14  10  81 MISG      29.79S
LADYSMITH      CLOUDY    14   9  80 CALM      29.80S
EAU CLAIRE     CLOUDY    22  16  78 CALM      29.80S
6HR MIN TEMP:  19; 6HR MAX TEMP:  22;

MENOMONIE      CLOUDY    24  18  78 E3        29.79F
NEW RICHMOND   CLOUDY    22  15  76 CALM      29.78S
OSCEOLA        FLURRIES  23  16  75 E5        29.80F WCI  16
$$

WIZ003>005-009-010-017-018-160100-
NORTH CENTRAL WISCONSIN

CITY           SKY/WX    TMP DP  RH WIND       PRES   REMARKS
MANITOWISH WTR CLOUDY    -1  -3  94 CALM      29.75R FOG
ARBOR VITAE    CLOUDY     4   1  86 CALM      29.74S
WOODRUFF       CLOUDY     4   1  86 CALM      29.74S
RHINELANDER    CLOUDY     3   2  95 CALM      29.76R
6HR MIN TEMP:   1; 6HR MAX TEMP:  15; 6HR PCP: TRACE;

EAGLE RIVER    MOCLDY     8   2  78 W3        29.74R
LAND O LAKES   CLOUDY    11   5  74 CALM      29.76R
PHILLIPS       CLOUDY     6   5  95 CALM      29.75S
TOMAHAWK       PTCLDY     1  -3  87 CALM      29.77S
MEDFORD        CLOUDY    14   7  75 CALM      29.76S
MERRILL        CLOUDY     5   3  91 CALM      29.78S
$$

WIZ029-030-035-036-043>047-160100-
CENTRAL WISCONSIN

CITY           SKY/WX    TMP DP  RH WIND       PRES   REMARKS
WAUSAU         CLOUDY    14   8  77 CALM      29.78R
6HR MIN TEMP:  12; 6HR MAX TEMP:  17;

MOSINEE        MOCLDY    16   9  73 CALM      29.80R
MARSHFIELD     CLOUDY    13   9  84 CALM      29.77S
6HR MIN TEMP:  12; 6HR MAX TEMP:  19;

STEVENS POINT  MOCLDY    17  10  73 CALM      29.81S
WAUPACA        CLOUDY    22  12  66 CALM      29.83R
WAUTOMA        CLOUDY    23  16  74 CALM      29.83R
6HR MIN TEMP:  22; 6HR MAX TEMP:  25;

WISC RAPIDS    CLOUDY    21  12  68 NE3       29.82S
6HR MIN TEMP:  20; 6HR MAX TEMP:  23;

CAMP DOUGLAS   CLOUDY    28  23  80 CALM      29.80S
$$

WIZ011>013-019>022-031-037>040-048>050-160100-
NORTHEAST WISCONSIN

CITY           SKY/WX    TMP DP  RH WIND       PRES   REMARKS
ANTIGO         PTCLDY     0  -2  92 CALM      29.77R
SHAWANO        CLOUDY    14   7  73 CALM      29.82S
OCONTO         CLEAR      6   3  86 CALM      29.83S
STURGEON BAY   MOCLDY    17   9  70 NW10      29.82S WCI   5
6HR MIN TEMP:  17; 6HR MAX TEMP:  22; 6HR PCP: TRACE;

GREEN BAY      CLOUDY    10   5  80 W3        29.84R
6HR MIN TEMP:   9; 6HR MAX TEMP:  22;

MANITOWOC      CLOUDY    11   5  77 CALM      29.85R
6HR MIN TEMP:  11; 6HR MAX TEMP:  24;

APPLETON       CLOUDY    19   7  58 NW5       29.81R WCI  13
CLINTONVILLE   NOT AVBL
OSHKOSH        CLOUDY    22  14  71 CALM      29.83R
6HR MIN TEMP:  20; 6HR MAX TEMP:  23;

$$

WIZ032>034-041-042-053>061-160100-
SOUTHWEST WISCONSIN

CITY           SKY/WX    TMP DP  RH WIND       PRES   REMARKS
LA CROSSE      CLOUDY    32  27  81 S6        29.81F WCI  26
6HR MIN TEMP:  30; 6HR MAX TEMP:  32;

SPARTA         CLOUDY    30  26  84 CALM      29.82S
VIROQUA        CLOUDY    29  29  99 CALM      29.79F
BOSCOBEL       CLOUDY    32  27  81 CALM      29.84F
6HR MIN TEMP:  30; 6HR MAX TEMP:  33; 6HR PCP: TRACE;

PRAIRIE DU CHI CLOUDY    33  27  78 E3        29.82F
PLATTEVILLE    CLOUDY    32  28  87 S7        29.84S WCI  25
$$

WIZ056-057-062-063-064-067-068-160100-
SOUTH CENTRAL WISCONSIN

CITY           SKY/WX    TMP DP  RH WIND       PRES   REMARKS
REEDSBURG      CLOUDY    29  26  89 SW6       29.81F WCI  23
BARABOO/DELLS  CLOUDY    29  24  81 SW7       29.81S WCI  22
LONE ROCK      NOT AVBL
MINERAL POINT  CLOUDY    32  32 100 S6        29.82S WCI  26
MADISON        FLURRIES  30  25  81 VRB7      29.84S WCI  23
6HR MIN TEMP:  29; 6HR MAX TEMP:  31; 6HR PCP: TRACE;

MIDDLETON      CLOUDY    32  27  82 SW6       29.84S WCI  26
WATERTOWN      CLOUDY    29  26  86 SW8       29.83S WCI  21
MONROE         CLOUDY    30  27  86 SW10      29.84S WCI  21
JANESVILLE     CLOUDY    32  27  80 SW7       29.85F WCI  26
$$

WIZ051-052-058>065-066-070>072-160100-
SOUTHEAST WISCONSIN

CITY           SKY/WX    TMP DP  RH WIND       PRES   REMARKS
MILWAUKEE      MOCLDY    30  23  75 SW9       29.85R WCI  22
6HR MIN TEMP:  27; 6HR MAX TEMP:  31;

WAUKESHA       MOCLDY    27  21  80 SW7       29.85R WCI  19
MILWAUKEE/TIMM MOCLDY    27  18  69 SW5       29.85S WCI  21
RACINE         CLOUDY    30  23  75 SW9       29.88R WCI  22
6HR MIN TEMP:  28; 6HR MAX TEMP:  31;

BURLINGTON     MOCLDY    30  26  83 SW9       29.86S WCI  22
KENOSHA        CLOUDY    32  23  69 SW12      29.87R WCI  23
6HR MIN TEMP:  30; 6HR MAX TEMP:  32;

FOND DU LAC    CLOUDY    23  16  74 CALM      29.83R
6HR MIN TEMP:  22; 6HR MAX TEMP:  25; 6HR PCP: TRACE;

SHEBOYGAN      CLOUDY    20  13  74 CALM      29.84R
6HR MIN TEMP:  18; 6HR MAX TEMP:  24; 6HR PCP: TRACE;

WEST BEND      CLOUDY    19  18  93 CALM      29.83S
JUNEAU         CLOUDY    22  17  80 CALM      29.84R
$$

LSZ147-162-160100-
LAKE SUPERIOR

STATION/POSITION TIME  TEMP    WIND        PRES    WAVE
                       AIR SEA DIR/SP/G            HT/PER
                 (UTC) (F)     (DEG/KT/KT) (MB)    (FT/S)
DEVILS ISLAND    2300   17     240/  4/  6 1010.4F
SAXON HARBOR     2330    8                 1009.5R
$$

LMZ867-665-643>646-160100-
LAKE MICHIGAN

STATION/POSITION TIME  TEMP    WIND        PRES    WAVE
                       AIR SEA DIR/SP/G            HT/PER
                 (UTC) (F)     (DEG/KT/KT) (MB)    (FT/S)
NORTHPORT PIER   2340   21     280/  6/ 10 1009.1R
KEWAUNEE LAKESHO 2330   14     320/  2/  2 1009.5F
SHEBOYGAN LAKESH 2300   22     290/  5/  6 1011.4R
PORT WASHINGTON  2330   24     300/  1/  3 1011.9R
MILWAUKEE LAKESH 2330   31     230/  6/  8   N/A
KENOSHA   LAKESH 2300   31     240/  7/ 13 1011.9
$$

TC  - TEMPERATURE IN CELSIUS
VSB - VISIBILITY IN STATUTE MILES
WCI - WIND CHILL INDEX
HX  - HEAT INDEX





USA.gov is the U.S. government's official web portal to all federal, state and local government web resources and services.